Jaipur, India

3:28 PM IST on June 24, 2017 (GMT +0530)
Jaipur

Weather History for VIJP - March, 2013

Change the Weather History Date:

Friday, March 1, 2013

  Actual Average Record
Temperature  
Mean Temperature 68 °F -  
Max Temperature 79 °F - - ()
Min Temperature 57 °F - - ()
Cooling Degree Days 3    
Growing Degree Days 18 (Base 50)    
Moisture  
Dew Point 40 °F    
Average Humidity 37    
Maximum Humidity 59    
Minimum Humidity 11    
Precipitation  
Precipitation 0.00 in - - ()
Sea Level Pressure  
Sea Level Pressure 30.08 in    
Wind  
Wind Speed 5 mph ()    
Max Wind Speed 9 mph    
Max Gust Speed -    
Visibility 2.4 miles    
Events      
T = Trace of Precipitation, MM = Missing Value Source: Averaged Metar Reports

Daily Weather History Graph

Daily Weather History Graph

Search for Another Location

Airport or City:

Trip Planner

Search our weather history database for the weather conditions in past years. The results will help you decide how hot, cold, wet, or windy it might be!

Date:

Astronomy

Mar. 01, 2013 Rise Set
Actual Time 6:50 AM IST 6:27 PM IST
Civil Twilight 6:27 AM IST 6:51 PM IST
Nautical Twilight 6:00 AM IST 7:18 PM IST
Astronomical Twilight 5:33 AM IST 7:45 PM IST
Moon 10:02 PM IST (3/1) 8:44 AM IST (3/1)
Length of Visible Light 12h 23m
Length of Day
11h 36m
Waning Gibbous, 87% of the Moon is Illuminated
Mar 1
Waning Gibbous
Mar 5
Last Quarter
Mar 12
New
Mar 19
First Quarter
Mar 27
Full

Hourly Weather History & Observations

Time (IST) Temp. Dew Point Humidity Pressure Visibility Wind Dir Wind Speed Gust Speed Precip Events Conditions
12:00 AM 66.2 °F 39.2 °F 37% 30.12 in 2.5 mi Variable 6.9 mph - N/A   Haze
1:00 AM 64.4 °F 41.0 °F 42% 30.12 in 2.5 mi NNE 6.9 mph - N/A   Haze
2:00 AM 64.4 °F 41.0 °F 42% 30.09 in 2.5 mi Variable 6.9 mph - N/A   Haze
3:00 AM 62.6 °F 41.0 °F 45% 30.06 in 2.5 mi Variable 8.1 mph - N/A   Haze
4:00 AM 62.6 °F 41.0 °F 45% 30.06 in 2.5 mi Variable 5.8 mph - N/A   Haze
5:00 AM 59.0 °F 42.8 °F 55% 30.06 in 2.5 mi Calm Calm - N/A   Haze
5:30 AM 59 °F 44 °F 45% 30.06 in 1 mi Calm Calm - -   Haze
6:00 AM 59.0 °F 44.6 °F 59% 30.06 in 2.2 mi Variable 3.5 mph - N/A   Haze
7:00 AM 59.0 °F 44.6 °F 59% 30.09 in 2.2 mi Variable 4.6 mph - N/A   Haze
8:00 AM 60.8 °F 46.4 °F 59% 30.12 in 2.5 mi Variable 5.8 mph - N/A   Haze
8:30 AM 60 °F 46 °F 50% 30.10 in 2 mi 3.5 mph - -   Haze
9:00 AM 62.6 °F 46.4 °F 55% 30.15 in 2.5 mi Variable 6.9 mph - N/A   Haze
10:00 AM 66.2 °F 41.0 °F 40% 30.15 in 2.5 mi Variable 8.1 mph - N/A   Haze
11:30 AM 69 °F 39 °F 22% 30.09 in 2 mi NW 6.9 mph - -  
12:00 PM 71.6 °F 39.2 °F 31% 30.12 in 3.7 mi Variable 5.8 mph - N/A   Unknown
1:00 PM 75.2 °F 39.2 °F 27% 30.12 in 3.7 mi Variable 8.1 mph - N/A   Partly Cloudy
2:00 PM 77.0 °F 35.6 °F 22% 30.09 in 3.7 mi Variable 8.1 mph - N/A   Partly Cloudy
2:30 PM 77 °F 33 °F 11% 30.03 in 2 mi 5.8 mph - -   Partly Cloudy
3:00 PM 78.8 °F 32.0 °F 18% 30.06 in 3.7 mi Variable 9.2 mph - N/A   Partly Cloudy
4:00 PM 78.8 °F 30.2 °F 17% 30.06 in 3.7 mi Variable 8.1 mph - N/A   Scattered Clouds
5:30 PM 76 °F 37 °F 14% 30.01 in 2 mi NW 5.8 mph - -   Haze
7:00 PM 73.4 °F 33.8 °F 23% 30.06 in 2.5 mi NNW 6.9 mph - N/A   Haze
8:30 PM 69 °F 39 °F 22% 30.01 in 1 mi NNE 1.2 mph - -   Haze
9:00 PM 68.0 °F 37.4 °F 33% 30.09 in 1.9 mi Calm Calm - N/A   Haze
10:00 PM 64.4 °F 39.2 °F 40% 30.09 in 1.9 mi Calm Calm - N/A   Haze
11:00 PM 64.4 °F 39.2 °F 40% 30.09 in 1.6 mi Variable 3.5 mph - N/A   Haze